Location: Abraham Lincoln Continuation High School
(33.9711°N, 117.3662°W)
Time: 14:15:03
(UTC+00:00)

ARGOS - Pass Details

Date: 21 September 2020
Orbit: 821 x 834 km, 98.4° (Epoch: 29 October)

Event Time Altitude Azimuth Distance (km) Brightness Sun altitude
Exits shadow 03:02:17 - 156° (SSE) 2,624 5.4 -16.1°
Reaches altitude 10° 03:02:50 10° 155° (SSE) 2,409 5.2 -16.2°
Maximum altitude 03:08:06 65° 74° (ENE) 904 3.1 -17.3°
Drops below altitude 10° 03:13:25 10° 354° (N) 2,428 5.8 -18.4°
Sets 03:15:47 0° 352° (N) 3,366 6.6 -18.8°
